Location: Newark
(42.8481°N, 0.4872°E)
Time: 09:25:39
(UTC+00:00)

A-11 Canister half - Pass Details

Date: 29 October 2020
Orbit: 1516 x 1684 km, 47.2° (Epoch: 04 December)

Event Time Altitude Azimuth Distance (km) Brightness Sun altitude
Exits shadow 03:07:19 23° 167° (SSE) 2,834 10.3 -37.2°
Drops below altitude 10° 03:10:32 10° 156° (SSE) 3,706 11.0 -36.6°
Sets 03:13:44 0° 150° (SSE) 4,671 11.7 -36.1°
